TimeEST,TemperatureF,Dew PointF,Humidity,Sea Level PressureIn,VisibilityMPH,Wind Direction,Wind SpeedMPH,Gust SpeedMPH,PrecipitationIn,Events,Conditions,WindDirDegrees,DateUTC
12:18 AM,53.6,50.0,88,30.24,10.0,SSE,8.1,-,N/A,,Mostly Cloudy,150,2012-12-04 05:18:00
12:39 AM,53.6,50.0,88,30.23,10.0,SSE,6.9,-,N/A,,Scattered Clouds,160,2012-12-04 05:39:00
1:01 AM,53.6,50.0,88,30.23,10.0,SSE,6.9,-,N/A,,Scattered Clouds,160,2012-12-04 06:01:00
1:22 AM,51.8,50.0,94,30.23,10.0,SSE,6.9,-,N/A,,Clear,160,2012-12-04 06:22:00
1:43 AM,53.6,50.0,88,30.23,10.0,SSE,6.9,-,N/A,,Clear,160,2012-12-04 06:43:00
2:05 AM,51.8,50.0,94,30.24,10.0,SSE,5.8,-,N/A,,Clear,150,2012-12-04 07:05:00
2:26 AM,51.8,50.0,94,30.24,10.0,SSE,3.5,-,N/A,,Clear,150,2012-12-04 07:26:00
2:47 AM,51.8,50.0,94,30.24,10.0,Calm,Calm,-,N/A,,Clear,0,2012-12-04 07:47:00
3:08 AM,50.0,48.2,94,30.23,10.0,Calm,Calm,-,N/A,,Clear,0,2012-12-04 08:08:00
3:30 AM,51.8,50.0,94,30.23,10.0,Calm,Calm,-,N/A,,Clear,0,2012-12-04 08:30:00
3:51 AM,51.8,50.0,94,30.23,10.0,SE,3.5,-,N/A,,Clear,140,2012-12-04 08:51:00
4:12 AM,51.8,50.0,94,30.23,10.0,SE,4.6,-,N/A,,Scattered Clouds,140,2012-12-04 09:12:00
4:34 AM,51.8,50.0,94,30.23,10.0,SE,3.5,-,N/A,,Clear,140,2012-12-04 09:34:00
4:55 AM,51.8,50.0,94,30.23,10.0,SSE,4.6,-,N/A,,Clear,160,2012-12-04 09:55:00
5:16 AM,51.8,50.0,94,30.23,10.0,SE,4.6,-,N/A,,Clear,140,2012-12-04 10:16:00
5:38 AM,51.8,50.0,94,30.23,10.0,SE,3.5,-,N/A,,Clear,140,2012-12-04 10:38:00
5:59 AM,51.8,50.0,94,30.23,10.0,SSE,5.8,-,N/A,,Clear,150,2012-12-04 10:59:00
6:20 AM,51.8,50.0,94,30.23,10.0,SE,4.6,-,N/A,,Clear,140,2012-12-04 11:20:00
6:41 AM,51.8,50.0,94,30.23,10.0,SSE,4.6,-,N/A,,Clear,150,2012-12-04 11:41:00
7:03 AM,51.8,50.0,94,30.23,10.0,SSE,3.5,-,N/A,,Clear,150,2012-12-04 12:03:00
7:24 AM,51.8,50.0,94,30.23,10.0,SE,4.6,-,N/A,,Clear,140,2012-12-04 12:24:00
8:06 AM,51.8,51.8,100,30.24,10.0,Calm,Calm,-,N/A,,Clear,0,2012-12-04 13:06:00
8:28 AM,50.0,50.0,100,30.24,7.0,Calm,Calm,-,N/A,,Clear,0,2012-12-04 13:28:00
8:49 AM,53.6,51.8,94,30.25,10.0,Calm,Calm,-,N/A,,Clear,0,2012-12-04 13:49:00
9:10 AM,53.6,51.8,94,30.25,10.0,Calm,Calm,-,N/A,,Clear,0,2012-12-04 14:10:00
9:53 AM,55.4,51.8,88,30.25,10.0,South,3.5,-,N/A,,Clear,170,2012-12-04 14:53:00
10:14 AM,53.6,50.0,88,30.25,7.0,Calm,Calm,-,N/A,,Clear,0,2012-12-04 15:14:00
10:35 AM,57.2,51.8,82,30.24,10.0,SSE,5.8,-,N/A,,Clear,160,2012-12-04 15:35:00
10:56 AM,59.0,51.8,77,30.23,10.0,SSE,5.8,-,N/A,,Clear,150,2012-12-04 15:56:00
11:18 AM,60.8,51.8,72,30.22,10.0,SE,10.4,-,N/A,,Clear,140,2012-12-04 16:18:00
11:39 AM,60.8,51.8,72,30.21,10.0,South,5.8,-,N/A,,Clear,180,2012-12-04 16:39:00
12:00 PM,60.8,51.8,72,30.20,10.0,SSE,9.2,-,N/A,,Clear,150,2012-12-04 17:00:00
12:21 PM,62.6,51.8,68,30.18,10.0,SSE,8.1,-,N/A,,Clear,150,2012-12-04 17:21:00
12:42 PM,62.6,51.8,68,30.18,10.0,SSE,6.9,-,N/A,,Clear,160,2012-12-04 17:42:00
12:43 PM,62.6,51.8,68,30.18,10.0,SSE,8.1,-,N/A,,Clear,160,2012-12-04 17:43:00
1:04 PM,64.4,51.8,64,30.16,10.0,South,6.9,-,N/A,,Clear,180,2012-12-04 18:04:00
1:25 PM,64.4,51.8,64,30.15,10.0,SSE,6.9,-,N/A,,Clear,150,2012-12-04 18:25:00
1:46 PM,64.4,51.8,64,30.14,10.0,South,8.1,-,N/A,,Clear,170,2012-12-04 18:46:00
2:50 PM,64.4,51.8,64,30.12,10.0,SSE,4.6,-,N/A,,Clear,150,2012-12-04 19:50:00
3:11 PM,64.4,51.8,64,30.12,10.0,SSE,5.8,-,N/A,,Clear,160,2012-12-04 20:11:00
3:32 PM,66.2,51.8,60,30.12,10.0,SSE,4.6,-,N/A,,Clear,160,2012-12-04 20:32:00
3:54 PM,64.4,51.8,64,30.12,10.0,SSE,8.1,-,N/A,,Clear,160,2012-12-04 20:54:00
4:15 PM,64.4,51.8,64,30.12,10.0,South,6.9,-,N/A,,Clear,170,2012-12-04 21:15:00
4:36 PM,62.6,51.8,68,30.11,10.0,SSE,9.2,-,N/A,,Clear,160,2012-12-04 21:36:00
4:57 PM,60.8,51.8,72,30.11,10.0,SSE,6.9,-,N/A,,Clear,150,2012-12-04 21:57:00
5:19 PM,59.0,51.8,77,30.11,10.0,SSE,8.1,-,N/A,,Clear,150,2012-12-04 22:19:00
5:40 PM,59.0,51.8,77,30.11,10.0,SE,6.9,-,N/A,,Clear,140,2012-12-04 22:40:00
6:01 PM,57.2,51.8,82,30.10,10.0,SE,6.9,-,N/A,,Clear,140,2012-12-04 23:01:00
6:22 PM,55.4,51.8,88,30.10,10.0,SSE,6.9,-,N/A,,Clear,150,2012-12-04 23:22:00
6:44 PM,55.4,51.8,88,30.09,10.0,SSE,5.8,-,N/A,,Clear,150,2012-12-04 23:44:00
7:05 PM,55.4,50.0,82,30.09,10.0,SSE,6.9,-,N/A,,Clear,160,2012-12-05 00:05:00
7:26 PM,55.4,50.0,82,30.09,10.0,SSE,8.1,-,N/A,,Clear,160,2012-12-05 00:26:00
7:47 PM,59.0,50.0,72,30.09,10.0,SSE,9.2,-,N/A,,Clear,160,2012-12-05 00:47:00
8:08 PM,59.0,50.0,72,30.08,10.0,SSE,8.1,-,N/A,,Clear,160,2012-12-05 01:08:00
8:30 PM,57.2,50.0,77,30.07,10.0,SSE,6.9,-,N/A,,Clear,150,2012-12-05 01:30:00
8:51 PM,55.4,50.0,82,30.07,10.0,SSE,6.9,-,N/A,,Clear,160,2012-12-05 01:51:00
9:12 PM,57.2,50.0,77,30.06,10.0,South,5.8,-,N/A,,Clear,170,2012-12-05 02:12:00
9:34 PM,60.8,50.0,68,30.06,10.0,South,6.9,-,N/A,,Clear,180,2012-12-05 02:34:00
9:55 PM,60.8,50.0,68,30.05,10.0,South,6.9,-,N/A,,Scattered Clouds,170,2012-12-05 02:55:00
10:16 PM,60.8,50.0,68,30.05,10.0,South,6.9,-,N/A,,Scattered Clouds,180,2012-12-05 03:16:00
11:20 PM,60.8,48.2,63,30.03,10.0,South,8.1,-,N/A,,Clear,170,2012-12-05 04:20:00
11:41 PM,59.0,48.2,67,30.02,10.0,South,8.1,-,N/A,,Clear,180,2012-12-05 04:41:00